Location: Unspecified
(47.9110°N, 14.3980°E)
Time: 10:05:06
(UTC+00:00)

Cosmos 1486 Rocket - Pass Details

Date: 06 August 2020
Orbit: 759 x 783 km, 74.1° (Epoch: 20 September)

Event Time Altitude Azimuth Distance (km) Brightness Sun altitude
Exits shadow 23:23:04 81° 217° (SW) 776 3.8 -25.7°
Maximum altitude 23:23:19 88° 288° (WNW) 769 3.9 -25.6°
Drops below altitude 10° 23:28:33 10° 22° (NNE) 2,301 7.4 -25.6°
Sets 23:30:56 0° 23° (NNE) 3,230 8.4 -25.5°
